Grand Junction, CO

7:48 AM MST on November 17, 2019 (GMT -0700)
Walker

Weather History for KGJT - April, 2019

Change the Weather History Date:

Tuesday, April 2, 2019

  Actual Average Record
Temperature  
Mean Temperature 55 °F 48 °F  
Max Temperature 65 °F 61 °F 81 °F (2011)
Min Temperature 44 °F 35 °F 11 °F (1975)
Degree Days  
Heating Degree Days 10 17  
Month to date heating degree days 29 34  
Since 1 July heating degree days 5137 5066  
Cooling Degree Days 0 0  
Month to date cooling degree days 0 0  
Year to date cooling degree days 0 0  
Growing Degree Days 4 (Base 50)    
Moisture  
Dew Point 29 °F    
Average Humidity 41    
Maximum Humidity 58    
Minimum Humidity 23    
Precipitation  
Precipitation T in 0.03 in 0.71 in (1974)
Month to date precipitation T 0.06  
Year to date precipitation 3.73 2.10  
Snow  
Snow 0.00 in 0.00 in 2.50 in (1945)
Month to date snowfall 0.0 0.1  
Since 1 July snowfall 17.4 18.2  
Snow Depth 0.00 in    
Sea Level Pressure  
Sea Level Pressure 29.82 in    
Wind  
Wind Speed 10 mph (ESE)    
Max Wind Speed 24 mph    
Max Gust Speed 34 mph    
Visibility 10 miles    
Events      
T = Trace of Precipitation, MM = Missing Value Source: NWS Daily Summary

Daily Weather History Graph

Daily Weather History Graph

Search for Another Location

Airport or City:

Astronomy

Apr. 02, 2019 Rise Set
Actual Time 6:57 AM MDT 7:38 PM MDT
Civil Twilight 6:30 AM MDT 8:05 PM MDT
Nautical Twilight 5:58 AM MDT 8:37 PM MDT
Astronomical Twilight 5:25 AM MDT 9:10 PM MDT
Moon 6:02 AM MDT (4/2) 5:14 PM MDT (4/2)
Length of Visible Light 13h 35m
Length of Day
12h 41m
Waning Crescent, 6% of the Moon is Illuminated
Apr 2
Waning Crescent
Apr 5
New
Apr 12
First Quarter
Apr 19
Full
Apr 26
Last Quarter

Hourly Weather History & Observations

Time (MDT) Temp. Windchill Dew Point Humidity Pressure Visibility Wind Dir Wind Speed Gust Speed Precip Events Conditions
12:53 AM 48.9 °F - 28.0 °F 44% 29.91 in 10.0 mi East 8.1 mph - N/A   Partly Cloudy
1:53 AM 48.0 °F - 27.0 °F 44% 29.91 in 10.0 mi SSE 6.9 mph - N/A   Clear
2:53 AM 45.0 °F 41.2 °F 28.0 °F 52% 29.89 in 10.0 mi NE 6.9 mph - N/A   Mostly Cloudy
3:53 AM 45.0 °F 41.8 °F 30.9 °F 58% 29.89 in 10.0 mi East 5.8 mph - N/A   Overcast
4:53 AM 46.0 °F 42.5 °F 30.0 °F 54% 29.87 in 10.0 mi ESE 6.9 mph - N/A   Overcast
5:53 AM 46.9 °F - 27.0 °F 46% 29.86 in 10.0 mi ESE 15.0 mph - N/A   Partly Cloudy
6:53 AM 46.0 °F 39.0 °F 28.0 °F 50% 29.87 in 10.0 mi ESE 17.3 mph - N/A   Scattered Clouds
7:53 AM 46.9 °F - 28.9 °F 50% 29.88 in 10.0 mi ESE 16.1 mph - N/A   Scattered Clouds
8:53 AM 50.0 °F - 30.0 °F 46% 29.88 in 10.0 mi ESE 17.3 mph - N/A   Overcast
9:53 AM 53.1 °F - 30.0 °F 41% 29.87 in 10.0 mi ESE 15.0 mph - N/A   Overcast
10:53 AM 57.0 °F - 30.0 °F 36% 29.85 in 10.0 mi ESE 12.7 mph - N/A   Overcast
11:53 AM 61.0 °F - 26.1 °F 26% 29.81 in 10.0 mi ESE 6.9 mph - N/A   Mostly Cloudy
12:53 PM 63.0 °F - 25.0 °F 24% 29.78 in 10.0 mi ESE 4.6 mph - N/A   Scattered Clouds
1:53 PM 62.1 °F - 26.1 °F 25% 29.76 in 10.0 mi NW 9.2 mph - N/A   Clear
2:53 PM 63.0 °F - 26.1 °F 25% 29.75 in 10.0 mi Calm Calm - N/A   Scattered Clouds
3:53 PM 63.0 °F - 28.0 °F 27% 29.74 in 10.0 mi WSW 10.4 mph - N/A   Overcast
4:53 PM 57.9 °F - 30.0 °F 35% 29.78 in 10.0 mi SW 12.7 mph 18.4 mph N/A   Overcast
5:53 PM 55.0 °F - 32.0 °F 42% 29.79 in 10.0 mi South 8.1 mph - N/A   Overcast
6:53 PM 54.0 °F - 34.0 °F 47% 29.79 in 8.0 mi East 5.8 mph - N/A   Overcast
7:53 PM 54.0 °F - 33.1 °F 45% 29.80 in 10.0 mi Calm Calm - N/A   Overcast
8:53 PM 53.1 °F - 32.0 °F 45% 29.82 in 10.0 mi SSW 16.1 mph 27.6 mph 0.00 in   Overcast
9:53 PM 52.0 °F - 33.1 °F 49% 29.82 in 10.0 mi SSE 11.5 mph - N/A   Overcast
10:53 PM 51.1 °F - 32.0 °F 48% 29.78 in 10.0 mi East 15.0 mph - N/A   Overcast
11:53 PM 51.1 °F - 30.9 °F 46% 29.76 in 10.0 mi ESE 13.8 mph - N/A   Partly Cloudy